Terminal Aerodrome Forecast
Issued by NWS

Home | Current Version | Previous Version | Text Only | Print | Product List | Glossary On
Versions: 1 2 3 4 5 6 7 8 9 10 11 12 13 14 15 16 17 18
000
FTUS43 KTOP 191100
TAFFOE
TAF
KFOE 191132Z 1912/2012 VRB05KT 6SM BR OVC070
     FM191900 32011KT P6SM VCTS OVC030CB
     FM192200 33017G28KT P6SM -SHRA VCTS OVC030CB
     FM200200 34017G29KT P6SM OVC050=

USA.gov is the U.S. government's official web portal to all federal, state and local government web resources and services.